[[{"header":{"parameterUnit":"m.s-1","parameterCategory":1,"la1":30.2991,"la2":30.254,"lo1":-89.0895,"lo2":-89.0444,"dy":0.0017,"dx":0.0017,"nx":28,"ny":28,"refTime":"2024-02-13T03:00:00:Z","depth":0,"parameterNumber":2,"parameterNumberName":"U-component_of_WINDS"},"data":[0,0,0,0,0,0,0,0,0,0,0,0,0,0,0,0,0,0,0,0,0,0,0,0,0,0,0,0,0,0,0,0,0,0,0,0,0,0,0,0,0,0,0,0,0,0,0,0,0,0,0,0,0,0,0,0,0,0,6.0533,6.0534,0,6.0668,6.0669,6.0671,6.061,6.0606,6.0603,6.06,6.0739,6.0746,6.0752,0,0,0,0,0,0,0,0,0,0,0,0,0,6.0224,6.023,6.0532,6.0534,6.0536,6.0668,6.0669,6.0671,6.061,6.0606,6.0602,6.0598,6.0737,6.0745,6.0753,0,0,0,0,0,0,0,0,0,0,0,0,0,6.0359,6.0232,6.0532,6.0521,6.0522,6.0667,6.067,6.0672,6.0611,6.0606,6.0601,6.0596,6.0734,6.0744,6.0754,6.0919,0,0,6.0786,6.079,0,0,0,0,0,0,0,0,6.0351,6.037,6.0521,6.0522,6.0523,6.0617,6.0612,6.0755,6.0612,6.0577,6.06,6.0594,6.0702,6.0715,6.0751,6.0925,6.0931,6.0786,6.0793,6.0797,6.08,0,0,0,0,0,0,0,6.0342,6.0364,6.0586,6.0523,6.0525,6.0511,6.0524,6.0639,6.0666,6.058,6.0576,6.0592,6.0702,6.0742,6.0754,6.0933,6.0786,6.0795,6.0802,6.0806,6.1252,6.1258,0,0,0,0,0,0,6.0333,6.0357,6.0582,6.059,6.0423,6.052,6.0535,6.0592,6.0665,6.0671,6.0597,6.0589,6.0727,6.0742,6.0759,6.0958,6.0797,6.0807,6.0813,6.1247,6.1253,6.126,0,0,0,0,0,0,6.0326,6.0353,6.0576,6.0472,6.05,6.0531,6.0595,6.0597,6.0637,6.0678,6.0683,6.0632,6.0723,6.0744,6.088,6.0962,6.0811,6.0821,6.124,6.1249,6.1257,6.1357,0,0,0,0,0,0,6.0318,6.0351,6.0413,6.0474,6.0505,6.0695,6.06,6.0603,6.0654,6.0646,6.0712,6.0718,6.0721,6.0865,6.089,6.0974,6.0829,6.1233,6.1244,6.1254,6.1347,6.1368,6.1386,0,0,0,0,0,6.0307,6.0436,6.0417,6.0444,6.0583,6.0699,6.0717,6.0717,6.0661,6.0725,6.0752,6.0716,6.0949,6.0879,6.0907,6.0995,6.1227,6.1241,6.1253,6.1338,6.1364,6.1386,0,0,0,0,0,0,6.0383,6.0443,6.0423,6.0575,6.0633,6.0689,6.0768,6.0745,6.0819,6.0808,6.0805,6.0821,6.0962,6.0992,6.0913,6.116,6.108,6.1099,6.1135,6.116,6.1179,6.1169,6.0837,0,0,0,0,0,6.0417,6.0506,6.0554,6.0684,6.0714,6.0737,6.0787,6.0782,6.0842,6.0866,6.0902,6.0962,6.1049,6.1106,6.1188,6.1351,6.1366,6.1425,6.1445,6.1461,6.1478,6.1569,6.1596,6.1302,6.1302,6.1301,0,0,6.049,6.0534,6.0589,6.0701,6.0744,6.0837,6.0757,6.0858,6.0927,6.0881,6.1012,6.1041,6.1108,6.1259,6.1327,6.1288,6.1563,6.1478,6.149,6.1498,6.1585,6.1613,6.1637,6.131,6.1309,6.1307,0,0,6.0669,6.071,6.0824,6.087,6.0938,6.0953,6.0981,6.1041,6.1059,6.119,6.1159,6.1242,6.139,6.144,6.1485,6.1687,6.1658,6.1714,6.1817,6.1906,6.1929,6.195,6.2023,6.205,6.173,6.173,6.173,0,6.075,6.0887,6.0885,6.099,6.1041,6.1004,6.1121,6.1166,6.1257,6.1294,6.1249,6.1437,6.1479,6.1642,6.1692,6.1729,6.1762,6.1705,6.1926,6.1947,6.1966,6.2036,6.2063,6.1736,6.1736,6.1735,6.1734,0,6.0985,6.1081,6.1165,6.1255,6.1316,6.1426,6.1442,6.1503,6.1494,6.1514,6.165,6.17,6.1792,6.1831,6.1822,6.1994,6.1968,6.1925,6.1845,6.2,6.2066,6.2093,6.1746,6.1743,6.1741,6.174,0,0,6.1213,6.1303,6.1334,6.1376,6.145,6.1525,6.1634,6.1725,6.1779,6.1844,6.1937,6.2066,6.2027,6.2078,6.2076,6.2154,6.2313,6.2101,6.2103,6.214,6.2507,6.2539,6.257,6.2294,6.23,6.2304,6.2502,0,6.1399,6.159,6.1593,6.1769,6.1859,6.1828,6.1923,6.198,6.2002,6.2083,6.2108,6.22,6.2141,6.2172,6.2248,6.2277,6.2387,6.2263,6.2382,6.2386,6.2366,6.2604,6.2638,6.2822,6.2527,6.2532,6.2535,0,6.164,6.1714,6.1899,6.1963,6.2001,6.2086,6.2172,6.2249,6.2314,6.2325,6.2383,6.237,6.2484,6.2401,6.2558,6.2474,6.2523,6.2545,6.2553,6.2564,6.247,6.2623,6.2881,6.2909,6.2575,6.2572,6.2569,0,6.179,6.1936,6.2066,6.2103,6.2179,6.2241,6.2276,6.2336,6.2391,6.2466,6.2502,6.259,6.2637,6.2706,6.2717,6.2655,6.2876,6.2793,6.289,6.289,6.2937,6.2934,6.3208,6.2969,6.2968,6.2968,6.2967,0,6.1996,6.2111,6.2135,6.2215,6.2344,6.2347,6.2475,6.2505,6.2559,6.2646,6.2624,6.2706,6.2716,6.2801,6.2811,6.2941,6.2963,6.2976,6.2977,6.2978,6.2977,6.301,6.2998,6.2975,6.2973,6.2972,6.2971,0,6.2185,6.2205,6.2346,6.2408,6.2426,6.2519,6.2572,6.265,6.2671,6.2781,6.2808,6.2841,6.2941,6.2959,6.3076,6.3083,6.3239,6.3227,6.3217,6.3216,6.3312,6.3303,6.3617,6.3659,6.3391,6.3394,6.3396,0,6.2316,6.2404,6.2476,6.2533,6.2571,6.2662,6.2719,6.2727,6.2787,6.287,6.2938,6.3035,6.3114,6.3275,6.331,6.3401,6.3391,6.3495,6.3404,6.3404,6.3394,6.3389,6.3399,6.3512,6.3515,6.3518,6.3519,0,6.2546,6.2552,6.2635,6.2723,6.2792,6.2861,6.2926,6.2974,6.2991,6.3061,6.3163,6.3223,6.3344,6.3442,6.3533,6.357,6.3549,6.3548,6.3575,6.3577,6.3568,6.3576,6.3265,6.3541,6.3538,6.3537,6.3536,6.3535,6.271,6.2788,6.2852,6.2946,6.2996,6.3059,6.3135,6.3167,6.3252,6.3351,6.3351,6.3463,6.3528,6.3648,6.3692,6.378,6.3747,6.3786,6.3796,6.3806,6.3816,6.3554,6.3797,6.3796,6.3796,6.3795,6.3795,0,6.294,6.298,6.3067,6.316,6.3235,6.3208,6.328,6.3345,6.3444,6.3506,6.3584,6.3703,6.3799,6.3843,6.3937,6.4,6.3993,6.4025,6.402,6.403,6.3839,6.3807,6.4029,6.4029,6.4029,6.4029,6.4029,6.4029,6.3069,6.3199,6.3214,6.3371,6.341,6.352,6.3563,6.3622,6.3672,6.3805,6.3885,6.3913,6.3969,6.4068,6.4155,6.4166,6.4202,6.4239,6.4245,6.4066,6.4043,6.402,6.3989,6.4247,6.4247,6.4428,6.443,6.4431]},{"header":{"parameterUnit":"m.s-1","parameterCategory":1,"la1":30.2991,"la2":30.254,"lo1":-89.0895,"lo2":-89.0444,"dy":0.0017,"dx":0.0017,"nx":28,"ny":28,"refTime":"2024-02-13T03:00:00:Z","depth":0,"parameterNumber":3,"parameterNumberName":"V-component_of_WINDS"},"data":[0,0,0,0,0,0,0,0,0,0,0,0,0,0,0,0,0,0,0,0,0,0,0,0,0,0,0,0,0,0,0,0,0,0,0,0,0,0,0,0,0,0,0,0,0,0,0,0,0,0,0,0,0,0,0,0,0,0,-6.2255,-6.2257,0,-6.2453,-6.2455,-6.2457,-6.2435,-6.2432,-6.2429,-6.2426,-6.2629,-6.2637,-6.2645,0,0,0,0,0,0,0,0,0,0,0,0,0,-6.186,-6.1868,-6.2255,-6.2257,-6.226,-6.2452,-6.2455,-6.2458,-6.2436,-6.2432,-6.2428,-6.2424,-6.2626,-6.2636,-6.2646,0,0,0,0,0,0,0,0,0,0,0,0,0,-6.2042,-6.187,-6.2254,-6.2272,-6.2276,-6.2452,-6.2455,-6.2458,-6.2436,-6.2432,-6.2427,-6.2423,-6.2623,-6.2635,-6.2647,-6.2819,0,0,-6.2685,-6.2691,0,0,0,0,0,0,0,0,-6.2032,-6.2057,-6.2267,-6.2271,-6.2275,-6.2414,-6.239,-6.2579,-6.2438,-6.2375,-6.2426,-6.242,-6.2561,-6.2578,-6.2626,-6.2828,-6.2837,-6.2686,-6.2694,-6.2699,-6.2703,0,0,0,0,0,0,0,-6.2019,-6.2048,-6.2333,-6.227,-6.2275,-6.2271,-6.2291,-6.2426,-6.2492,-6.238,-6.2379,-6.2403,-6.2563,-6.2614,-6.263,-6.284,-6.2686,-6.2697,-6.2705,-6.271,-6.3195,-6.32,0,0,0,0,0,0,-6.2002,-6.2038,-6.2327,-6.2339,-6.2139,-6.2282,-6.2305,-6.2375,-6.2491,-6.2504,-6.2407,-6.2401,-6.2595,-6.2616,-6.2638,-6.2847,-6.2699,-6.2711,-6.2718,-6.3189,-6.3196,-6.3202,0,0,0,0,0,0,-6.1994,-6.2028,-6.2319,-6.2188,-6.2225,-6.2293,-6.2372,-6.2381,-6.2432,-6.2511,-6.2523,-6.2447,-6.2592,-6.262,-6.2774,-6.2854,-6.2717,-6.2728,-6.3183,-6.3191,-6.3199,-6.3267,0,0,0,0,0,0,-6.1983,-6.2025,-6.2091,-6.219,-6.2232,-6.2452,-6.2377,-6.2388,-6.2454,-6.2448,-6.2552,-6.2564,-6.259,-6.2756,-6.2787,-6.2869,-6.2738,-6.3176,-6.3187,-6.3196,-6.3258,-6.3277,-6.3293,0,0,0,0,0,-6.1968,-6.2102,-6.2094,-6.2129,-6.2315,-6.2457,-6.2481,-6.2508,-6.246,-6.2527,-6.2578,-6.2561,-6.284,-6.2772,-6.2806,-6.2893,-6.3171,-6.3184,-6.3196,-6.3251,-6.3273,-6.3292,0,0,0,0,0,0,-6.201,-6.2115,-6.2108,-6.2277,-6.2358,-6.2452,-6.2537,-6.2531,-6.2627,-6.2618,-6.2648,-6.2672,-6.2828,-6.2876,-6.2798,-6.3066,-6.2999,-6.3019,-6.3029,-6.3051,-6.3068,-6.3054,-6.2748,0,0,0,0,0,-6.2039,-6.2145,-6.2231,-6.2372,-6.2413,-6.2469,-6.2531,-6.2545,-6.2631,-6.2665,-6.2727,-6.281,-6.2917,-6.2987,-6.3089,-6.3265,-6.3288,-6.3342,-6.3359,-6.3373,-6.339,-6.3488,-6.3513,-6.3242,-6.3241,-6.3241,0,0,-6.21,-6.217,-6.2235,-6.2382,-6.2447,-6.2556,-6.2497,-6.2615,-6.2697,-6.2683,-6.2833,-6.2881,-6.2977,-6.3143,-6.3219,-6.3188,-6.347,-6.3388,-6.3399,-6.3408,-6.3503,-6.3528,-6.3551,-6.325,-6.3248,-6.3247,0,0,-6.2267,-6.233,-6.2456,-6.2522,-6.262,-6.2656,-6.2686,-6.2783,-6.2814,-6.2965,-6.2957,-6.3055,-6.3238,-6.3307,-6.3365,-6.356,-6.3549,-6.3593,-6.3683,-6.3778,-6.3799,-6.3818,-6.3889,-6.3914,-6.3609,-6.3609,-6.3609,0,-6.233,-6.2494,-6.2521,-6.2641,-6.2706,-6.2698,-6.2826,-6.2889,-6.3016,-6.3062,-6.3025,-6.3255,-6.3319,-6.3502,-6.3549,-6.3597,-6.3633,-6.3581,-6.3794,-6.3813,-6.3832,-6.3899,-6.3926,-6.3614,-6.3614,-6.3613,-6.3613,0,-6.2568,-6.2682,-6.2772,-6.2895,-6.297,-6.3093,-6.3139,-6.3213,-6.3221,-6.3261,-6.3416,-6.3492,-6.361,-6.3654,-6.3663,-6.384,-6.3817,-6.3787,-6.372,-6.3862,-6.3926,-6.3952,-6.3621,-6.3619,-6.3618,-6.3617,0,0,-6.2766,-6.2903,-6.2936,-6.2992,-6.3101,-6.319,-6.3313,-6.3429,-6.3492,-6.3581,-6.3685,-6.3841,-6.3814,-6.3881,-6.3898,-6.3981,-6.4132,-6.3941,-6.3944,-6.3975,-6.4333,-6.4355,-6.4385,-6.4125,-6.413,-6.4134,-6.4325,0,-6.2945,-6.3163,-6.3191,-6.3384,-6.3491,-6.3486,-6.3593,-6.3672,-6.3713,-6.381,-6.3856,-6.3966,-6.3922,-6.3962,-6.4045,-6.4096,-6.4205,-6.4083,-6.4224,-6.4229,-6.4201,-6.4418,-6.4443,-6.4619,-6.435,-6.4354,-6.4358,0,-6.3182,-6.3277,-6.3481,-6.3577,-6.3623,-6.3719,-6.3828,-6.3921,-6.401,-6.4035,-6.411,-6.4117,-6.4245,-6.4173,-6.4351,-6.4268,-6.4327,-6.4362,-6.4369,-6.4384,-6.4302,-6.444,-6.4676,-6.4702,-6.4397,-6.4394,-6.4391,0,-6.3307,-6.3487,-6.3632,-6.3681,-6.3795,-6.3863,-6.3914,-6.3999,-6.4068,-6.4164,-6.4209,-6.4318,-6.4378,-6.4463,-6.4499,-6.4443,-6.4676,-6.4606,-6.4701,-6.47,-6.475,-6.4747,-6.5,-6.4787,-6.4787,-6.4786,-6.4786,0,-6.3504,-6.363,-6.3691,-6.378,-6.3921,-6.3953,-6.4091,-6.414,-6.4216,-6.4316,-6.4318,-6.4411,-6.4453,-6.4554,-6.4583,-6.4727,-6.4754,-6.4778,-6.4784,-6.4778,-6.4775,-6.4818,-6.4807,-6.4793,-6.4792,-6.479,-6.4789,0,-6.3668,-6.3714,-6.3873,-6.3969,-6.3996,-6.4095,-6.4178,-6.4265,-6.4306,-6.4432,-6.4464,-6.4528,-6.4646,-6.4691,-6.4835,-6.4855,-6.5022,-6.5018,-6.4992,-6.4994,-6.5086,-6.5077,-6.5376,-6.5417,-6.5176,-6.5178,-6.518,0,-6.3791,-6.3888,-6.3994,-6.4061,-6.4114,-6.4222,-6.4292,-6.4327,-6.44,-6.451,-6.4585,-6.4703,-6.48,-6.499,-6.5049,-6.516,-6.516,-6.5257,-6.5176,-6.5168,-6.5162,-6.5157,-6.5167,-6.5272,-6.5274,-6.5276,-6.5278,0,-6.4005,-6.4023,-6.4124,-6.4233,-6.4317,-6.4405,-6.449,-6.4545,-6.4593,-6.4675,-6.4796,-6.4871,-6.5019,-6.5137,-6.5251,-6.5304,-6.53,-6.5303,-6.5331,-6.5326,-6.5307,-6.532,-6.5033,-6.5296,-6.5294,-6.5293,-6.5292,-6.5291,-6.4153,-6.4239,-6.4328,-6.444,-6.4508,-6.4588,-6.4676,-6.4728,-6.4829,-6.4952,-6.4967,-6.5098,-6.5186,-6.5339,-6.5398,-6.5501,-6.5475,-6.5515,-6.5526,-6.5535,-6.5542,-6.529,-6.5522,-6.5521,-6.5521,-6.5521,-6.552,0,-6.4368,-6.4425,-6.4528,-6.4648,-6.4737,-6.4724,-6.4819,-6.4894,-6.5009,-6.5092,-6.5187,-6.5327,-6.5442,-6.5511,-6.5626,-6.5696,-6.5697,-6.5725,-6.5721,-6.5734,-6.5558,-6.5523,-6.5723,-6.5722,-6.5722,-6.5722,-6.5722,-6.5722,-6.449,-6.4636,-6.4665,-6.4844,-6.4901,-6.5029,-6.5084,-6.5158,-6.5224,-6.5381,-6.5476,-6.552,-6.5599,-6.572,-6.5825,-6.5842,-6.5885,-6.5916,-6.5931,-6.5766,-6.5746,-6.5726,-6.5693,-6.5925,-6.5925,-6.6098,-6.61,-6.6101]}]]